Back to catalog

JWST

AliveScienceLPO
NORAD 50463·PAYLOAD·🇪🇺 EU

Launched Dec 25, 2021 from Guiana Space Centre

Loading…

TLE

StaleSource: Space-Track

Epoch: Dec 28, 2021, 00:00 UTC

1 50463U 21130A   21362.00000000  .00000000  00000-0  00000-0 0  9999
2 50463   4.6198  89.0659 9884983 192.3200  17.4027  0.01958082    27

Track JWST in real time with AllMySat

Download on the App Store